Home > Weather > Drammen > Past weeks

Flag for Norway Weather for the Past 2 Weeks in Drammen, Norway

Now
39 °F

Passing clouds.


Feels Like: 27 °F
Forecast: 22 / 30 °F
Wind: 32 mph from Northeast

Location: Statfjord B

Current Time: Feb 11, 2016 at 11:18:51 PM

Latest Report: Feb 11, 2016 at 10:50 PM


Visibility: N/A

Pressure: 29.77 "Hg

Humidity: 61%

Dew point: 27 °F

Location of DrammenLocation

Historic Weather in Drammen — Graph

°F

Drammen Temperature Yesterday

Maximum temperature yesterday: 45 °F (at 12:20 AM)
Minimum temperature yesterday: 37 °F (at 11:50 PM)
Average temperature yesterday: 43 °F

High & Low Weather Summary for the Past Weeks

 TemperatureHumidityPressure
High48 °F (Jan 29, 11:50 AM)100% (Jan 29, 7:50 AM)29.98 "Hg (Jan 29, 7:50 AM)
Low34 °F (Jan 31, 7:50 AM)45% (Feb 4, 11:50 AM)28.26 "Hg (Jan 29, 3:50 PM)
Average42 °F77%29.11 "Hg
* Reported Jan 27 9:20 PM — Feb 11 9:50 PM, Drammen, Weather by CustomWeather, © 2016

Note: Actual official high and low records may vary slightly from our data, if they occured in-between our weather recording intervals... More about our weather records

Advertising

Drammen Weather History for the Previous 24 Hours

 ConditionsComfort  
Time TempWeatherWind HumidityBarometerVisibility
9:50 PM
Thu, Feb 11
39 °FPassing clouds.31 mph61%29.74 "HgN/A
9:20 PM39 °FPassing clouds.32 mph61%29.74 "HgN/A
8:50 PM39 °FPassing clouds.30 mph61%29.74 "HgN/A
8:20 PM39 °FPassing clouds.33 mph65%29.74 "HgN/A
7:50 PM39 °FPassing clouds.33 mph70%29.74 "HgN/A
7:20 PM39 °FPassing clouds.31 mph65%29.74 "HgN/A
6:50 PM39 °FPassing clouds.33 mph65%29.74 "HgN/A
6:20 PM39 °FPassing clouds.32 mph65%29.71 "HgN/A
5:50 PM39 °FPassing clouds.33 mph65%29.71 "HgN/A
5:20 PM39 °FPassing clouds.33 mph65%29.71 "HgN/A
4:50 PM39 °FScattered clouds.33 mph65%29.71 "HgN/A
4:20 PM39 °FScattered clouds.36 mph61%29.68 "HgN/A
3:50 PM39 °FPassing clouds.36 mph61%29.68 "HgN/A
3:20 PM39 °FChilly.41 mph56%29.68 "HgN/A
2:50 PM39 °FPassing clouds.40 mph61%29.68 "HgN/A
2:20 PM41 °FPassing clouds.40 mph53%29.65 "HgN/A
1:50 PM39 °FChilly.41 mph56%29.65 "HgN/A
1:20 PM39 °FScattered clouds.41 mph61%29.65 "HgN/A
12:50 PM41 °FPassing clouds.38 mph61%29.65 "HgN/A
12:20 PM41 °FPassing clouds.41 mph49%29.65 "HgN/A
11:50 AM41 °FScattered clouds.41 mph49%29.62 "HgN/A
11:20 AM41 °FPartly sunny.44 mph57%29.62 "HgN/A
10:50 AM41 °FSprinkles. Partly sunny.41 mph57%29.62 "HgN/A
10:20 AM39 °FScattered clouds.41 mph61%29.62 "HgN/A
9:50 AM39 °FPartly sunny.46 mph61%29.59 "HgN/A
9:20 AM41 °FSprinkles. Broken clouds.37 mph57%29.59 "HgN/A
8:50 AM39 °FScattered clouds.43 mph65%29.56 "HgN/A
8:20 AM41 °FPartly sunny.43 mph57%29.56 "HgN/A
7:50 AM39 °FPassing clouds.40 mph75%29.56 "HgN/A
7:20 AM37 °FSprinkles. Passing clouds.33 mph87%29.56 "HgN/A
6:50 AM36 °FSnow flurries. Passing clouds.43 mph87%29.56 "Hg2 mi
6:20 AM37 °FLight rain. Passing clouds.46 mph81%29.53 "HgN/A
5:50 AM41 °FPassing clouds.43 mph66%29.50 "HgN/A
5:20 AM39 °FPassing clouds.45 mph75%29.50 "HgN/A
4:50 AM39 °FPassing clouds.48 mph75%29.50 "HgN/A
4:20 AM39 °FPassing clouds.40 mph70%29.50 "HgN/A
3:50 AM37 °FLight rain. Passing clouds.44 mph81%29.50 "HgN/A
2:50 AM39 °FPassing clouds.43 mph70%29.47 "HgN/A
2:20 AM41 °FPartly cloudy.39 mph76%29.47 "HgN/A
1:50 AM41 °FPassing clouds.40 mph70%29.47 "HgN/A
1:20 AM41 °FSprinkles. Passing clouds.41 mph61%29.45 "HgN/A
12:50 AM41 °FPassing clouds.44 mph61%29.45 "HgN/A
12:20 AM41 °FPassing clouds.39 mph66%29.45 "HgN/A
11:50 PM
Wed, Feb 10
37 °FSprinkles. Passing clouds.44 mph87%29.45 "HgN/A
11:20 PM41 °FPassing clouds.40 mph70%29.42 "HgN/A
Weather by CustomWeather, © 2016

See weather overviewHow to use our weather pages